Location: Newark
(49.3000°N, 9.4667°E)
Time: 00:03:55
(UTC+00:00)

Transit 4A - Pass Details

Date: 30 May 2019
Orbit: 862 x 983 km, 66.8° (Epoch: 17 June)

Event Time Altitude Azimuth Distance (km) Brightness Sun altitude
Rises 19:43:34 0° 323° (NW) 3,695 13.2 -4.2°
Reaches altitude 10° 19:46:23 10° 332° (NNW) 2,747 11.8 -4.6°
Maximum altitude 19:52:17 36° 38° (NE) 1,507 9.1 -5.3°
Drops below altitude 10° 19:58:06 10° 104° (ESE) 2,714 9.8 -6.0°
Enters shadow 19:59:41 - 110° (ESE) 3,236 10.2 -6.2°
